[[{"header":{"parameterUnit":"m.s-1","parameterCategory":1,"la1":30.2991,"la2":30.254,"lo1":-89.0895,"lo2":-89.0444,"dy":0.0017,"dx":0.0017,"nx":28,"ny":28,"refTime":"2024-04-13T03:00:00:Z","depth":0,"parameterNumber":2,"parameterNumberName":"U-component_of_WINDS"},"data":[0,0,0,0,0,0,0,0,0,0,0,0,0,0,0,0,0,0,0,0,0,0,0,0,0,0,0,0,0,0,0,0,0,0,0,0,0,0,0,0,0,0,0,0,0,0,0,0,0,0,0,0,0,0,0,0,0,0,-1.2843,-1.2842,0,-1.2768,-1.2767,-1.2767,-1.27,-1.27,-1.2699,-1.2698,-1.2621,-1.262,-1.2619,0,0,0,0,0,0,0,0,0,0,0,0,0,-1.2929,-1.2928,-1.2843,-1.2842,-1.2841,-1.2768,-1.2767,-1.2766,-1.27,-1.27,-1.2699,-1.2698,-1.2622,-1.262,-1.2619,0,0,0,0,0,0,0,0,0,0,0,0,0,-1.2877,-1.2928,-1.2843,-1.28,-1.2795,-1.2769,-1.2767,-1.2766,-1.2701,-1.27,-1.2698,-1.2697,-1.2622,-1.262,-1.2618,-1.2629,0,0,-1.2612,-1.2612,0,0,0,0,0,0,0,0,-1.288,-1.2874,-1.2807,-1.2803,-1.2797,-1.2742,-1.277,-1.272,-1.2701,-1.2736,-1.2698,-1.2697,-1.2663,-1.2657,-1.2646,-1.2626,-1.2622,-1.2612,-1.2611,-1.261,-1.261,0,0,0,0,0,0,0,-1.2884,-1.2877,-1.2813,-1.2806,-1.28,-1.2784,-1.2775,-1.276,-1.2707,-1.2733,-1.2728,-1.272,-1.266,-1.2648,-1.2643,-1.2621,-1.2612,-1.261,-1.2609,-1.2608,-1.2607,-1.2608,0,0,0,0,0,0,-1.2894,-1.288,-1.2816,-1.2811,-1.2837,-1.2783,-1.2774,-1.2761,-1.2707,-1.2698,-1.2721,-1.2718,-1.2652,-1.2646,-1.2641,-1.2649,-1.261,-1.2608,-1.2607,-1.2606,-1.2607,-1.2608,0,0,0,0,0,0,-1.2896,-1.2889,-1.2819,-1.2844,-1.2834,-1.2783,-1.277,-1.276,-1.2748,-1.2698,-1.2688,-1.2719,-1.2651,-1.2643,-1.2633,-1.2646,-1.2607,-1.2606,-1.2604,-1.2606,-1.2608,-1.2668,0,0,0,0,0,0,-1.2899,-1.289,-1.2894,-1.2845,-1.2833,-1.2812,-1.2771,-1.276,-1.2745,-1.2739,-1.2693,-1.2684,-1.2649,-1.2636,-1.2631,-1.2642,-1.2604,-1.2603,-1.2605,-1.2607,-1.2664,-1.2671,-1.2677,0,0,0,0,0,-1.2902,-1.2913,-1.2894,-1.2887,-1.2836,-1.2813,-1.2806,-1.2766,-1.2746,-1.2749,-1.2717,-1.2686,-1.2646,-1.2635,-1.2629,-1.264,-1.2602,-1.2604,-1.2607,-1.2661,-1.267,-1.2677,0,0,0,0,0,0,-1.2965,-1.2906,-1.2884,-1.288,-1.2852,-1.2802,-1.2805,-1.2776,-1.2753,-1.2749,-1.2699,-1.269,-1.2684,-1.2661,-1.2651,-1.2648,-1.2619,-1.2621,-1.2663,-1.2671,-1.2677,-1.2682,-1.2602,0,0,0,0,0,-1.2978,-1.2964,-1.2914,-1.2915,-1.2902,-1.2856,-1.2844,-1.2816,-1.2785,-1.2773,-1.274,-1.2711,-1.2692,-1.268,-1.266,-1.2661,-1.265,-1.2666,-1.2672,-1.2678,-1.2679,-1.2678,-1.2685,-1.2617,-1.2617,-1.2617,0,0,-1.3005,-1.2972,-1.2966,-1.2927,-1.2902,-1.2888,-1.2847,-1.2834,-1.2824,-1.2771,-1.2758,-1.2734,-1.2698,-1.2694,-1.269,-1.2674,-1.2696,-1.2681,-1.2686,-1.2684,-1.2682,-1.2688,-1.2694,-1.2618,-1.2618,-1.2618,0,0,-1.3048,-1.3022,-1.3019,-1.2995,-1.2958,-1.2928,-1.2927,-1.2882,-1.2863,-1.285,-1.281,-1.2797,-1.2766,-1.2742,-1.2726,-1.2761,-1.2731,-1.2756,-1.2789,-1.2789,-1.2794,-1.2799,-1.2811,-1.2816,-1.2758,-1.2758,-1.2758,0,-1.3087,-1.3065,-1.3022,-1.3012,-1.2996,-1.2948,-1.2945,-1.2924,-1.2883,-1.2873,-1.2856,-1.2815,-1.2788,-1.2777,-1.2786,-1.2775,-1.2773,-1.276,-1.2797,-1.2801,-1.2805,-1.2816,-1.282,-1.2761,-1.2761,-1.276,-1.276,0,-1.3114,-1.31,-1.3102,-1.3063,-1.3048,-1.3042,-1.2998,-1.2988,-1.2961,-1.2932,-1.292,-1.2886,-1.2858,-1.2853,-1.2827,-1.2839,-1.283,-1.2806,-1.2776,-1.2815,-1.2824,-1.2828,-1.2766,-1.2765,-1.2764,-1.2763,0,0,-1.3193,-1.3131,-1.3132,-1.3114,-1.307,-1.3058,-1.305,-1.3023,-1.3015,-1.2988,-1.298,-1.2955,-1.2932,-1.2914,-1.2885,-1.2884,-1.2914,-1.286,-1.2858,-1.2871,-1.2925,-1.2943,-1.2949,-1.2895,-1.2895,-1.2896,-1.2928,0,-1.3228,-1.321,-1.3172,-1.3167,-1.3153,-1.3107,-1.3101,-1.3073,-1.3046,-1.3031,-1.3001,-1.2984,-1.2956,-1.2945,-1.2942,-1.2911,-1.2924,-1.2908,-1.2886,-1.2886,-1.2896,-1.2954,-1.2973,-1.3005,-1.2932,-1.2932,-1.2933,0,-1.3266,-1.3242,-1.3235,-1.3192,-1.3185,-1.318,-1.3152,-1.3137,-1.3106,-1.3086,-1.3067,-1.3034,-1.3024,-1.2997,-1.2982,-1.2972,-1.2961,-1.2944,-1.2945,-1.294,-1.2911,-1.2951,-1.3014,-1.3019,-1.2938,-1.2938,-1.2937,0,-1.3324,-1.329,-1.3281,-1.3267,-1.3217,-1.3214,-1.3193,-1.316,-1.3146,-1.3122,-1.3113,-1.3088,-1.3074,-1.3056,-1.3018,-1.3002,-1.3007,-1.2977,-1.299,-1.2991,-1.2992,-1.2992,-1.3054,-1.2987,-1.2987,-1.2987,-1.2986,0,-1.3366,-1.3364,-1.3307,-1.3301,-1.3298,-1.3254,-1.3251,-1.3226,-1.3197,-1.3186,-1.3146,-1.3137,-1.3088,-1.3073,-1.3043,-1.3035,-1.3029,-1.3013,-1.3005,-1.3016,-1.3019,-1.3008,-1.3004,-1.2988,-1.2988,-1.2987,-1.2987,0,-1.343,-1.3391,-1.3379,-1.3333,-1.3321,-1.332,-1.328,-1.3274,-1.3245,-1.3232,-1.3227,-1.3182,-1.3162,-1.3123,-1.3093,-1.3073,-1.3071,-1.3058,-1.3082,-1.3077,-1.3092,-1.3091,-1.3149,-1.3154,-1.3084,-1.3085,-1.3086,0,-1.3459,-1.3456,-1.3409,-1.3399,-1.338,-1.3364,-1.335,-1.3307,-1.3294,-1.3258,-1.3256,-1.3233,-1.3213,-1.3184,-1.3149,-1.3125,-1.311,-1.3132,-1.3107,-1.3118,-1.311,-1.3111,-1.311,-1.3138,-1.3139,-1.314,-1.314,0,-1.3515,-1.3496,-1.3477,-1.3452,-1.3436,-1.3414,-1.3389,-1.3384,-1.3335,-1.3323,-1.3302,-1.3287,-1.3256,-1.3234,-1.3206,-1.3184,-1.3154,-1.3149,-1.3151,-1.3161,-1.3176,-1.3168,-1.3097,-1.3147,-1.3147,-1.3146,-1.3146,-1.3146,-1.3562,-1.3557,-1.3524,-1.3504,-1.3481,-1.346,-1.3451,-1.3422,-1.3404,-1.3375,-1.3351,-1.3333,-1.3302,-1.3261,-1.3241,-1.3227,-1.3212,-1.3215,-1.3215,-1.3216,-1.3221,-1.3179,-1.3221,-1.3221,-1.3221,-1.3221,-1.322,0,-1.3615,-1.3592,-1.3574,-1.3541,-1.3526,-1.3499,-1.3471,-1.346,-1.3445,-1.3418,-1.3399,-1.3376,-1.3355,-1.3318,-1.3294,-1.3289,-1.3275,-1.3284,-1.3284,-1.3279,-1.3236,-1.3236,-1.3296,-1.3296,-1.3296,-1.3296,-1.3296,-1.3296,-1.3641,-1.3632,-1.3609,-1.3589,-1.3565,-1.3547,-1.3533,-1.3513,-1.3491,-1.3467,-1.345,-1.3426,-1.3395,-1.3369,-1.3348,-1.3338,-1.3331,-1.3345,-1.333,-1.329,-1.3282,-1.3276,-1.3276,-1.3343,-1.3344,-1.3375,-1.3375,-1.3375]},{"header":{"parameterUnit":"m.s-1","parameterCategory":1,"la1":30.2991,"la2":30.254,"lo1":-89.0895,"lo2":-89.0444,"dy":0.0017,"dx":0.0017,"nx":28,"ny":28,"refTime":"2024-04-13T03:00:00:Z","depth":0,"parameterNumber":3,"parameterNumberName":"V-component_of_WINDS"},"data":[0,0,0,0,0,0,0,0,0,0,0,0,0,0,0,0,0,0,0,0,0,0,0,0,0,0,0,0,0,0,0,0,0,0,0,0,0,0,0,0,0,0,0,0,0,0,0,0,0,0,0,0,0,0,0,0,0,0,4.1847,4.1847,0,4.1817,4.1816,4.1816,4.1808,4.1809,4.1809,4.1809,4.1773,4.1772,4.1771,0,0,0,0,0,0,0,0,0,0,0,0,0,4.1896,4.1895,4.1847,4.1847,4.1847,4.1817,4.1816,4.1816,4.1808,4.1809,4.1809,4.1809,4.1774,4.1772,4.1771,0,0,0,0,0,0,0,0,0,0,0,0,0,4.1871,4.1895,4.1848,4.1839,4.1838,4.1817,4.1816,4.1816,4.1808,4.1809,4.1809,4.1809,4.1774,4.1773,4.1771,4.1754,0,0,4.1766,4.1765,0,0,0,0,0,0,0,0,4.1872,4.1869,4.1841,4.184,4.1839,4.1817,4.182,4.1795,4.1808,4.182,4.1809,4.1809,4.1787,4.1784,4.1778,4.1752,4.1751,4.1765,4.1764,4.1764,4.1763,0,0,0,0,0,0,0,4.1874,4.1871,4.1835,4.1841,4.1839,4.1836,4.1833,4.1815,4.1802,4.1819,4.1818,4.1815,4.1787,4.178,4.1777,4.175,4.1765,4.1764,4.1763,4.1762,4.1709,4.1708,0,0,0,0,0,0,4.1878,4.1872,4.1836,4.1834,4.1857,4.1835,4.1831,4.1823,4.1802,4.1799,4.1814,4.1814,4.1782,4.1779,4.1776,4.1755,4.1764,4.1762,4.1761,4.1709,4.1709,4.1708,0,0,0,0,0,0,4.1879,4.1875,4.1837,4.1853,4.1848,4.1834,4.1825,4.1823,4.1816,4.1799,4.1796,4.181,4.1782,4.1778,4.176,4.1753,4.1761,4.176,4.171,4.1709,4.1709,4.1713,0,0,0,0,0,0,4.188,4.1875,4.187,4.1853,4.1847,4.1823,4.1824,4.1822,4.1813,4.1813,4.1794,4.1791,4.1782,4.1762,4.1758,4.1751,4.1758,4.171,4.1709,4.1709,4.1713,4.1712,4.1712,0,0,0,0,0,4.1882,4.1871,4.1869,4.1865,4.184,4.1823,4.1819,4.1811,4.1813,4.1806,4.1796,4.1792,4.1755,4.176,4.1755,4.1748,4.1711,4.171,4.1709,4.1713,4.1712,4.1712,0,0,0,0,0,0,4.1886,4.1869,4.1867,4.185,4.1838,4.1821,4.1813,4.181,4.1796,4.1796,4.1785,4.178,4.1763,4.1753,4.176,4.1731,4.1732,4.1731,4.1738,4.1737,4.1736,4.1739,4.1757,0,0,0,0,0,4.1885,4.1873,4.1858,4.1845,4.1839,4.1827,4.1819,4.1814,4.1801,4.1795,4.1783,4.1769,4.1754,4.1745,4.173,4.1711,4.1707,4.1704,4.1703,4.1703,4.1701,4.169,4.1689,4.1705,4.1705,4.1706,0,0,4.1882,4.1872,4.1865,4.1846,4.1836,4.1823,4.1823,4.181,4.18,4.1792,4.1775,4.1766,4.1749,4.1731,4.1722,4.1722,4.1696,4.1701,4.1701,4.17,4.1689,4.1688,4.1687,4.1705,4.1705,4.1705,0,0,4.1872,4.1862,4.1851,4.1841,4.1826,4.1819,4.1816,4.18,4.1794,4.1776,4.177,4.1758,4.1733,4.1721,4.1712,4.1698,4.1693,4.1693,4.1689,4.1679,4.1678,4.1677,4.1672,4.167,4.1691,4.1691,4.1691,0,4.187,4.1852,4.1844,4.1832,4.1823,4.1817,4.1805,4.1795,4.1776,4.177,4.1771,4.174,4.1728,4.1707,4.1704,4.1696,4.1692,4.1695,4.1679,4.1678,4.1676,4.1671,4.167,4.1692,4.1692,4.1691,4.1691,0,4.1851,4.1839,4.1831,4.1814,4.1805,4.1792,4.1781,4.1772,4.1767,4.1759,4.1741,4.1727,4.171,4.1704,4.1698,4.1682,4.1683,4.1682,4.1683,4.1675,4.167,4.1668,4.1692,4.1692,4.1692,4.1692,0,0,4.1842,4.1822,4.1819,4.1812,4.1795,4.1785,4.1771,4.1756,4.1749,4.1735,4.1724,4.1703,4.1702,4.1691,4.1684,4.1675,4.1665,4.1675,4.1674,4.1674,4.1646,4.1647,4.1645,4.1662,4.1661,4.1661,4.1647,0,4.1829,4.1807,4.18,4.1781,4.1769,4.1763,4.1751,4.174,4.1731,4.1719,4.1709,4.1695,4.1694,4.1688,4.1679,4.1668,4.1659,4.1669,4.165,4.1649,4.1655,4.1643,4.1644,4.1632,4.1645,4.1645,4.1645,0,4.1812,4.1801,4.1781,4.1766,4.1761,4.1751,4.1736,4.1725,4.1711,4.1706,4.1695,4.1688,4.1673,4.1676,4.1654,4.1661,4.1653,4.1646,4.1645,4.1643,4.1647,4.1641,4.1627,4.1626,4.1641,4.1642,4.1642,0,4.1808,4.1787,4.1773,4.1766,4.1749,4.1742,4.1734,4.1721,4.1712,4.1698,4.1693,4.1677,4.1668,4.1656,4.1645,4.1648,4.1625,4.1626,4.1619,4.162,4.1615,4.1615,4.16,4.1609,4.1609,4.1609,4.1609,0,4.1795,4.1783,4.1771,4.1762,4.1748,4.1739,4.1726,4.1717,4.1705,4.1694,4.1687,4.1676,4.1663,4.165,4.1641,4.1625,4.1621,4.1615,4.1613,4.1616,4.1617,4.1611,4.1612,4.1608,4.1609,4.1609,4.1609,0,4.1788,4.1779,4.1764,4.1749,4.1745,4.1735,4.1722,4.1713,4.1704,4.169,4.1686,4.1672,4.1657,4.1645,4.1625,4.1619,4.1601,4.1599,4.1607,4.1606,4.16,4.16,4.158,4.1577,4.1588,4.1587,4.1587,0,4.1781,4.1772,4.1757,4.175,4.1742,4.173,4.1722,4.1712,4.1703,4.1687,4.1679,4.1664,4.1651,4.1626,4.1613,4.1598,4.1595,4.1589,4.1592,4.1596,4.1595,4.1596,4.1595,4.1589,4.1589,4.1588,4.1588,0,4.1769,4.1765,4.1754,4.1741,4.1732,4.1721,4.1709,4.1703,4.1691,4.1682,4.1667,4.1657,4.1637,4.1621,4.1604,4.1594,4.1589,4.1588,4.1585,4.1588,4.1593,4.1591,4.1606,4.1588,4.1588,4.1588,4.1588,4.1588,4.1762,4.1754,4.1742,4.173,4.1721,4.171,4.1701,4.1692,4.168,4.1664,4.1658,4.1643,4.1629,4.1606,4.1596,4.1583,4.1583,4.1579,4.1578,4.1577,4.1578,4.1595,4.1579,4.1579,4.1579,4.1579,4.1579,0,4.175,4.1742,4.1731,4.1716,4.1706,4.1704,4.1691,4.1683,4.167,4.1658,4.1646,4.1628,4.1613,4.1599,4.1583,4.1575,4.1573,4.1572,4.1572,4.157,4.1579,4.1583,4.1574,4.1574,4.1574,4.1574,4.1574,4.1574,4.1743,4.1729,4.1724,4.1705,4.1697,4.1684,4.1677,4.1667,4.1657,4.1639,4.1627,4.1618,4.1605,4.1589,4.1574,4.157,4.1565,4.1565,4.156,4.1569,4.1569,4.157,4.1574,4.1563,4.1563,4.1553,4.1552,4.1552]}]]